Content
SEND FEEDBACK

Daily
Averages
Monthly
Summary
United States of America

TERRELL, TEXAS


Home > North America > United States > Texas
Elevation: 479 feet     Latitude: 32 42N     Longitude: 096 16W

WEATHER
 
SELECT A DAY
Number of Records: 173,793;   Date Range: 5/20/97 - 7/20/14
 
SHARE

PRINT THIS DATA

[ ← Previous Day ]
WEATHER ALMANAC - FEBRUARY 13, 2013
[ Next Day → ]
[ °C ]   °F
Weather ElementAverageHighLow
Temperature44.1 °F54 °F (3:53 pm)39.2 °F (5:30 am)
Dewpoint35.4 °F37.4 °F (1:00 am)33.1 °F (4:53 pm)
Humidity72.7 %87 % (5:30 am)45 % (4:53 pm)
Barometer30.09 in30.18 in (10:53 am)30.03 in (1:00 am)
Wind Speed7.5 mph17.3 mph (1:00 am)
Wind Gust24.2 mph (1:00 am)
Weather ElementAverage
Visibility9.8 mi
Wind DirectionWSW (240.3 °)

Weather ElementTotal
Precipitation---
Heating Degree Days18.4 (Base 65)
Averaged from 30 records on February 13, 2013
WEATHER CONDITIONS BREAKOUT
WIND DIRECTION BREAKOUT
WEATHER BY HOUR - FEBRUARY 13, 2013
[ °C ]   °F
Local TimeTemperatureDewpointHumidityBarometerVisibilityWind DirectionWind SpeedGust SpeedPrecipitationEventsConditions
1:00 AM42.8 °F37.4 °F81 %30.03 in10.0 miNW (320°)17.3 mph24.2 mphOvercast
1:33 AM42.8 °F35.6 °F76 %30.04 in10.0 miNW (320°)17.3 mph24.2 mphOvercast
1:53 AM42.1 °F36.0 °F79 %30.05 in10.0 miNW (320°)12.7 mphOvercast
2:06 AM41.0 °F35.6 °F81 %30.05 in10.0 miNW (310°)15.0 mph20.7 mphOvercast
2:26 AM41.0 °F35.6 °F81 %30.05 in10.0 miNW (320°)13.8 mph18.4 mphMostly Cloudy
2:53 AM41.0 °F35.1 °F79 %30.06 in10.0 miNNW (330°)11.5 mph20.7 mphOvercast
3:53 AM41.0 °F35.1 °F79 %30.06 in10.0 miNW (320°)13.8 mphOvercast
4:53 AM41.0 °F35.1 °F79 %30.08 in10.0 miNW (320°)11.5 mphOvercast
5:30 AM39.2 °F35.6 °F87 %30.09 in10.0 miNNW (330°)10.4 mphOvercast
5:53 AM39.9 °F35.1 °F83 %30.10 in10.0 miNW (320°)6.9 mphOvercast
6:53 AM39.9 °F35.1 °F83 %30.11 in9.0 miNNW (330°)6.9 mphOvercast
7:43 AM41.0 °F33.8 °F76 %30.12 in9.0 miNNW (330°)8.1 mphOvercast
7:53 AM41.0 °F34.0 °F76 %30.12 in9.0 miNW (320°)10.4 mphOvercast
8:53 AM41.0 °F35.1 °F79 %30.15 in10.0 miNNW (330°)5.8 mphOvercast
9:53 AM43.0 °F35.1 °F74 %30.16 in10.0 miNNW (340°)5.8 mphOvercast
10:53 AM43.0 °F35.1 °F74 %30.18 in10.0 miNW (320°)9.2 mphOvercast
11:53 AM44.1 °F35.1 °F71 %30.17 in10.0 miWest (280°)4.6 mphOvercast
12:53 PM46.9 °F37.0 °F68 %30.13 in10.0 miCalmOvercast
1:36 PM48.2 °F35.6 °F62 %30.10 in10.0 miCalmScattered Clouds
1:53 PM50.0 °F37.0 °F61 %30.09 in10.0 miVariable5.8 mphClear
2:53 PM53.1 °F36.0 °F52 %30.07 in10.0 miNNE (20°)3.5 mphClear
3:53 PM54.0 °F35.1 °F49 %30.06 in10.0 miNNW (340°)4.6 mphClear
4:53 PM54.0 °F33.1 °F45 %30.05 in10.0 miWest (270°)3.5 mphClear
5:53 PM52.0 °F33.1 °F49 %30.05 in10.0 miCalmClear
6:53 PM46.9 °F35.1 °F63 %30.05 in10.0 miSouth (180°)4.6 mphClear
7:53 PM45.0 °F36.0 °F71 %30.06 in10.0 miSouth (180°)5.8 mphClear
8:53 PM44.1 °F37.0 °F76 %30.06 in9.0 miSouth (180°)5.8 mphClear
9:53 PM42.1 °F36.0 °F79 %30.07 in9.0 miSouth (190°)3.5 mphClear
10:53 PM41.0 °F36.0 °F82 %30.08 in9.0 miSouth (190°)3.5 mphClear
11:53 PM39.9 °F36.0 °F86 %30.08 in10.0 miSSW (200°)4.6 mphClear
Hourly data recorded from KTRL, located miles away from Terrell, Texas







STORIES FROM OUR PARTNERS